Location: �mondeville
(49.4591°N, 1.3431°W)
Time: 09:37:05
(UTC+00:00)

Cosmos 1606 Rocket - Pass Details

Date: 22 October 2019
Orbit: 602 x 633 km, 82.5° (Epoch: 14 November)

Event Time Altitude Azimuth Distance (km) Brightness Sun altitude
Rises 04:49:30 0° 344° (NNW) 2,868 6.9 -18.1°
Reaches altitude 10° 04:51:47 10° 338° (NNW) 1,960 5.9 -17.7°
Maximum altitude 04:55:54 44° 267° (W) 843 3.8 -17.1°
Drops below altitude 10° 05:00:00 10° 195° (SSW) 1,950 5.9 -16.4°
Sets 05:02:16 0° 189° (S) 2,851 6.9 -16.0°
